Location: Noyers
(47.2770°N, 1.4032°E)
Time: 03:36:57
(UTC+00:00)

Cosmos 2237 Rocket - Pass Details

Date: 15 May 2026
Orbit: 833 x 849 km, 71.0° (Epoch: 8 June)

Event Time Altitude Azimuth Distance (km) Brightness Sun altitude
Rises 22:36:11 0° 337° (NNW) 3,420 6.9 -21.6°
Reaches altitude 10° 22:38:53 10° 346° (NNW) 2,479 5.8 -21.7°
Maximum altitude 22:44:03 34° 51° (NE) 1,361 3.4 -22.0°
Enters shadow 22:47:01 21° 101° (E) 1,808 3.7 -22.1°
